FW2250 Weather Reports


time (UTC)temp
F
wind
direction
speed
knots
gust
knots
rain 1hr
in
rain 24hr
in
rain mn
in
humidity
%
barometer
mb
20260505041527 75 123 0.0 0.0 0.00 0.00 0.00 100 1019.5
20260505040024 75 123 0.0 0.0 0.00 0.00 0.00 100 1019.4
20260505034527 75 123 0.0 0.9 0.00 0.00 0.00 100 1019.5
20260505033024 74 123 0.0 0.0 0.00 0.00 0.00 100 1019.5
20260505031522 75 123 0.0 0.0 0.00 0.00 0.00 100 1019.6
20260505030037 75 123 0.0 0.0 0.00 0.00 0.00 100 1019.6
20260505024522 75 123 0.0 0.0 0.00 0.00 0.00 100 1019.5
20260505023022 75 123 0.0 0.0 0.00 0.00 0.00 100 1019.4
20260505021523 75 123 0.0 0.0 0.00 0.00 0.00 100 1019.3
20260505020021 76 123 0.0 0.0 0.00 0.00 0.00 100 1019.0
20260505014523 76 123 0.0 0.0 0.00 0.00 0.00 100 1018.8
20260505013020 76 123 0.0 0.0 0.00 0.00 0.00 100 1018.6
20260505011518 77 123 0.0 0.0 0.00 0.00 0.00 99 1018.5
20260505010017 78 123 0.0 0.0 0.00 0.00 0.00 98 1018.1
20260505004530 78 123 0.0 0.0 0.00 0.00 0.00 97 1017.8
20260505003016 78 123 0.0 0.9 0.00 0.00 0.00 97 1017.5
20260505001516 79 123 0.0 0.9 0.00 0.00 0.00 96 1017.2
20260505000017 79 123 0.0 0.9 0.00 0.00 0.00 95 1017.0
20260504234518 80 123 0.0 0.9 0.00 0.00 0.00 94 1016.5
20260504233020 80 123 0.0 0.0 0.00 0.00 0.00 93 1016.2
20260504211532 92 123 0.0 4.3 0.00 0.00 0.00 72 1017.2
20260504210025 97 123 0.9 4.3 0.00 0.00 0.00 67 1017.2
20260504204524 91 123 0.9 2.6 0.00 0.00 0.00 75 1017.3
20260504203023 89 123 0.0 2.6 0.00 0.00 0.00 75 1017.3
20260504201523 88 123 0.9 4.3 0.00 0.00 0.00 78 1017.2
20260504200026 90 123 0.0 4.3 0.00 0.00 0.00 75 1017.3
20260504194524 92 123 0.9 3.5 0.00 0.00 0.00 72 1017.1
20260504193020 94 123 0.9 5.2 0.00 0.00 0.00 71 1017.5
20260504191518 97 123 0.9 6.1 0.00 0.00 0.00 68 1017.4
20260504190118 99 123 0.9 8.7 0.00 0.00 0.00 65 1017.4
20260504184532 100 123 0.9 6.1 0.00 0.00 0.00 65 1017.6
20260504183014 102 123 1.7 4.3 0.00 0.00 0.00 59 1017.5
20260504181509 101 123 0.0 4.3 0.00 0.00 0.00 60 1017.7
20260504180008 98 123 1.7 4.3 0.00 0.00 0.00 64 1017.7
20260504174506 96 123 1.7 7.0 0.00 0.00 0.00 69 1017.9
20260504173012 97 123 0.0 4.3 0.00 0.00 0.00 66 1018.2
20260504171503 91 123 0.9 6.1 0.00 0.00 0.00 73 1018.2
20260504081531 71 123 0.0 1.7 0.00 0.00 0.00 100 1018.5